Two Harbors, MN

3:52 AM CDT on May 30, 2017 (GMT -0500)
Helgeson

Weather History for KTWM - October, 2012

Change the Weather History Date:

Thursday, October 11, 2012

  Actual Average Record
Temperature  
Mean Temperature 36 °F -  
Max Temperature 42 °F 55 °F 84 °F (2015)
Min Temperature 30 °F 38 °F 26 °F (1996)
Degree Days  
Heating Degree Days 29    
Moisture  
Dew Point 26 °F    
Average Humidity 70    
Maximum Humidity 87    
Minimum Humidity 53    
Precipitation  
Precipitation 0.09 in - - ()
Sea Level Pressure  
Sea Level Pressure 30.04 in    
Wind  
Wind Speed 4 mph (WNW)    
Max Wind Speed 14 mph    
Max Gust Speed 25 mph    
Visibility 10 miles    
Events Rain    
Averages and records for this station are not official NWS values.
T = Trace of Precipitation, MM = Missing Value Source: NWS Daily Summary

Daily Weather History Graph

Daily Weather History Graph

Search for Another Location

Airport or City:

Trip Planner

Search our weather history database for the weather conditions in past years. The results will help you decide how hot, cold, wet, or windy it might be!

Date:

Astronomy

Oct. 11, 2012 Rise Set
Actual Time 7:20 AM CDT 6:26 PM CDT
Civil Twilight 6:49 AM CDT 6:56 PM CDT
Nautical Twilight 6:14 AM CDT 7:31 PM CDT
Astronomical Twilight 5:38 AM CDT 8:07 PM CDT
Moon 2:43 AM CDT (10/11) 4:15 PM CDT (10/11)
Length of Visible Light 12h 07m
Length of Day
11h 05m
Waning Crescent, 18% of the Moon is Illuminated
Oct 11
Waning Crescent
Oct 15
New
Oct 21
First Quarter
Oct 29
Full
Nov 6
Last Quarter

Hourly Weather History & Observations

Time (CDT) Temp. Windchill Dew Point Humidity Pressure Visibility Wind Dir Wind Speed Gust Speed Precip Events Conditions
12:11 AM 33.8 °F 30.8 °F 28.4 °F 81% 29.91 in 10.0 mi WSW 3.5 mph - 0.01 in Rain Rain
12:31 AM 33.8 °F 30.8 °F 28.4 °F 81% 29.91 in 7.0 mi WSW 3.5 mph - 0.02 in Rain Rain
12:52 AM 33.8 °F - 28.4 °F 81% 29.90 in 5.0 mi Calm Calm - 0.04 in Rain Rain
1:11 AM 32.0 °F - 28.4 °F 87% 29.89 in 5.0 mi Calm Calm - 0.01 in Rain Rain
1:31 AM 32.0 °F - 26.6 °F 80% 29.88 in 3.0 mi Calm Calm - 0.03 in   Overcast
1:52 AM 32.0 °F - 26.6 °F 80% 29.87 in 4.0 mi Calm Calm - 0.04 in Rain Light Rain
2:31 AM 32.0 °F - 26.6 °F 80% 29.86 in 7.0 mi Calm Calm - N/A Rain Light Rain
2:52 AM 32.0 °F - 28.4 °F 87% 29.86 in 10.0 mi Calm Calm - 0.01 in   Drizzle
3:11 AM 33.8 °F - 28.4 °F 81% 29.86 in 10.0 mi Calm Calm - N/A Rain Light Rain
3:31 AM 33.8 °F - 28.4 °F 81% 29.86 in 10.0 mi Calm Calm - N/A   Overcast
3:52 AM 33.8 °F - 28.4 °F 81% 29.87 in 10.0 mi Calm Calm - N/A   Light Drizzle
4:11 AM 33.8 °F - 28.4 °F 81% 29.87 in 10.0 mi Calm Calm - N/A   Overcast
4:31 AM 33.8 °F - 28.4 °F 81% 29.88 in 10.0 mi Calm Calm - N/A   Overcast
4:52 AM 33.8 °F 30.8 °F 28.4 °F 81% 29.88 in 10.0 mi NW 3.5 mph - N/A   Overcast
5:31 AM 33.8 °F - 28.4 °F 81% 29.89 in 10.0 mi Calm Calm - N/A   Scattered Clouds
5:52 AM 33.8 °F - 28.4 °F 81% 29.90 in 10.0 mi Calm Calm - N/A   Scattered Clouds
6:11 AM 33.8 °F 30.8 °F 28.4 °F 81% 29.90 in 10.0 mi WNW 3.5 mph - N/A   Scattered Clouds
6:31 AM 33.8 °F 29.6 °F 28.4 °F 81% 29.91 in 10.0 mi WNW 4.6 mph - N/A   Scattered Clouds
6:52 AM 33.8 °F 29.6 °F 28.4 °F 81% 29.91 in 10.0 mi NW 4.6 mph - N/A   Clear
7:31 AM 33.8 °F 28.6 °F 28.4 °F 81% 29.93 in 10.0 mi WNW 5.8 mph - N/A   Scattered Clouds
7:52 AM 33.8 °F 28.6 °F 28.4 °F 81% 29.94 in 10.0 mi WNW 5.8 mph - N/A   Scattered Clouds
8:11 AM 33.8 °F 28.6 °F 28.4 °F 81% 29.95 in 10.0 mi WNW 5.8 mph - N/A   Scattered Clouds
8:31 AM 33.8 °F 28.6 °F 28.4 °F 81% 29.96 in 10.0 mi WNW 5.8 mph - N/A   Mostly Cloudy
8:52 AM 35.6 °F 30.7 °F 28.4 °F 75% 29.96 in 10.0 mi WNW 5.8 mph - N/A   Mostly Cloudy
9:31 AM 35.6 °F 27.5 °F 28.4 °F 75% 29.98 in 10.0 mi WNW 11.5 mph 17.3 mph N/A   Clear
9:52 AM 35.6 °F 28.0 °F 26.6 °F 70% 29.99 in 10.0 mi WNW 10.4 mph 25.3 mph N/A   Scattered Clouds
10:11 AM 35.6 °F 29.2 °F 26.6 °F 70% 30.01 in 10.0 mi NW 8.1 mph 18.4 mph N/A   Clear
10:31 AM 37.4 °F 30.3 °F 28.4 °F 70% 30.02 in 10.0 mi West 10.4 mph - N/A   Scattered Clouds
10:51 AM 35.6 °F 28.0 °F 26.6 °F 70% 30.04 in 10.0 mi WNW 10.4 mph 23.0 mph N/A   Mostly Cloudy
11:12 AM 35.6 °F 28.6 °F 26.6 °F 70% 30.05 in 10.0 mi NW 9.2 mph 20.7 mph N/A   Overcast
11:31 AM 37.4 °F 29.3 °F 26.6 °F 65% 30.05 in 10.0 mi WNW 12.7 mph 23.0 mph N/A   Mostly Cloudy
11:51 AM 37.4 °F 29.8 °F 26.6 °F 65% 30.06 in 10.0 mi WNW 11.5 mph 20.7 mph N/A   Scattered Clouds
12:11 PM 39.2 °F 32.5 °F 26.6 °F 61% 30.07 in 10.0 mi NW 10.4 mph 18.4 mph N/A   Mostly Cloudy
12:32 PM 39.2 °F 31.2 °F 26.6 °F 61% 30.08 in 10.0 mi NW 13.8 mph 20.7 mph N/A   Mostly Cloudy
12:51 PM 37.4 °F 30.8 °F 26.6 °F 65% 30.08 in 10.0 mi West 9.2 mph 19.6 mph N/A   Overcast
1:12 PM 37.4 °F 32.1 °F 26.6 °F 65% 30.08 in 10.0 mi WNW 6.9 mph 16.1 mph N/A   Overcast
1:31 PM 41.0 °F 34.3 °F 28.4 °F 61% 30.09 in 10.0 mi NW 11.5 mph 20.7 mph N/A   Overcast
1:51 PM 39.2 °F 32.0 °F 26.6 °F 61% 30.09 in 10.0 mi WNW 11.5 mph 17.3 mph N/A   Overcast
2:12 PM 39.2 °F 31.6 °F 26.6 °F 61% 30.10 in 10.0 mi WNW 12.7 mph 25.3 mph N/A   Mostly Cloudy
2:31 PM 42.8 °F 35.8 °F 28.4 °F 57% 30.10 in 10.0 mi West 13.8 mph 19.6 mph N/A   Scattered Clouds
3:12 PM 42.8 °F 38.0 °F 28.4 °F 57% 30.12 in 10.0 mi West 8.1 mph - N/A   Scattered Clouds
3:31 PM 42.8 °F 37.0 °F 26.6 °F 53% 30.12 in 10.0 mi West 10.4 mph 19.6 mph N/A   Mostly Cloudy
3:51 PM 42.8 °F 38.6 °F 26.6 °F 53% 30.13 in 10.0 mi West 6.9 mph 21.9 mph N/A   Overcast
4:12 PM 42.8 °F 39.3 °F 26.6 °F 53% 30.13 in 10.0 mi NW 5.8 mph - N/A   Mostly Cloudy
4:31 PM 39.2 °F 32.5 °F 26.6 °F 61% 30.15 in 10.0 mi NW 10.4 mph 19.6 mph N/A Rain Light Rain
4:51 PM 37.4 °F 34.9 °F 26.6 °F 65% 30.15 in 10.0 mi WNW 3.5 mph - N/A   Mostly Cloudy
5:11 PM 39.2 °F - 26.6 °F 61% 30.15 in 10.0 mi Calm Calm - N/A   Scattered Clouds
5:31 PM 41.0 °F 33.9 °F 24.8 °F 53% 30.17 in 10.0 mi WNW 12.7 mph 18.4 mph N/A   Mostly Cloudy
6:31 PM 35.6 °F 31.7 °F 24.8 °F 65% 30.19 in 10.0 mi WNW 4.6 mph - N/A   Scattered Clouds
6:52 PM 37.4 °F 33.8 °F 23.0 °F 56% 30.21 in 10.0 mi WNW 4.6 mph - N/A   Mostly Cloudy
7:11 PM 37.4 °F 32.1 °F 23.0 °F 56% 30.22 in 10.0 mi WNW 6.9 mph - N/A   Mostly Cloudy
7:31 PM 35.6 °F 30.7 °F 23.0 °F 60% 30.22 in 10.0 mi WNW 5.8 mph - N/A   Mostly Cloudy
8:11 PM 35.6 °F 31.7 °F 21.2 °F 56% 30.24 in 10.0 mi West 4.6 mph - N/A   Scattered Clouds
8:31 PM 35.6 °F 32.8 °F 21.2 °F 56% 30.25 in 10.0 mi West 3.5 mph - N/A   Scattered Clouds
8:52 PM 33.8 °F 30.8 °F 21.2 °F 60% 30.25 in 10.0 mi WNW 3.5 mph - N/A   Scattered Clouds
9:11 PM 32.0 °F - 21.2 °F 64% 30.26 in 10.0 mi Calm Calm - N/A   Clear
10:11 PM 30.2 °F 25.4 °F 21.2 °F 69% 30.27 in 10.0 mi WNW 4.6 mph - N/A   Clear
10:31 PM 30.2 °F 25.4 °F 21.2 °F 69% 30.28 in 10.0 mi WNW 4.6 mph - N/A   Clear
11:11 PM 30.2 °F 26.7 °F 21.2 °F 69% 30.29 in 10.0 mi WNW 3.5 mph - N/A   Clear
11:31 PM 30.2 °F 25.4 °F 21.2 °F 69% 30.30 in 10.0 mi WNW 4.6 mph - N/A   Clear